星链-36303(STARLINK-36303)

导读

STARLINK-36303是美国太空探索技术公司SpaceX星链互联网卫星星座的成员,由美国于2026年2月20日发射。作为星链低轨互联网星座扩容任务的一部分,该卫星将入轨运行,为全球范围内用户提供高速低延迟的卫星互联网接入服务,进一步完善星链星座的全球覆盖能力。

Basic Information
目录编号:
67852
目录名称:
STARLINK-36276
国际标识:
2026-034C
轨道中心:
EARTH
卫星名称:
星链-36303
卫星全名:
星链-36303(STARLINK-36303)
卫星状态:
在轨 (已飞行205 天)
发射日期:
2026-02-20 UTC
国别 :
美国 (US)
星等 :
--
This satellite is enrolled in the Space Conjunction Data Service (SCDS) and the current flight risk assessment level is: No High Risk
Orbit Information
数据来源 国际轨道数据
星历时间: 2026-09-13T01:38:34+0800
14小时前
查看轨道信息
半长轴: 6840.839km
偏心率: 0.0000777
轨道倾角: 53.159°
近地点辐角 84.423°
升交点赤经 54.014°
平近点角 275.686°
近地点: 462.17km
远地点: 463.234km
周期: 93.848分钟
每日圈数: 15.344005
Detailed Information
固有亮度:
5
最大亮度:
2.5
卫星平台:
Starlink V1.0
覆盖范围:
全球
运营商:
太空探索技术公司
运营商所在国:
美国
制造商(研发单位):
太空探索技术公司
制造商所在国:
美国
使用方式:
暂无
Satellite Introduction
Starlink 计划是 SpaceX 推出的全球卫星互联网项目,通过发射低轨道卫星,为全球尤其是偏远地区提供高速、低延迟的互联网服务。自 2019 年起,Starlink 已部署数千颗卫星,旨在缩小全球数字鸿沟,推动互联网普及。该项目还为军事、航空等行业提供通信支持,带来广泛经济效益。
2D Orbit Map
3D Orbit Map
Orbit Altitude Analysis Chart
Orbit Inclination Analysis Chart
Orbit Comprehensive Analysis Chart
View Comprehensive Chart
Conjunction Data List
Event ID Objects TCA Miss Dist (km) Collision Risk Probability Collision Risk Index (CRI) Action
CDM_260915-114404-942006-785221
2026-09-15T
11:44:33+0000
0.798 km
远距离
2.483359E-5 中风险 0.63
CDM_260915-021406-785206-981921
2026-09-15T
02:14:47+0000
0.901 km
远距离
1.753761E-5 中风险 0.6
CDM_260915-153904-942006-785221
2026-09-15T
15:39:02+0000
0.922 km
远距离
1.530073E-5 中风险 0.59
CDM_260915-004006-785206-981921
2026-09-15T
00:40:59+0000
1.204 km
极远距离
6.487312E-6 低风险 0.51
CDM_260906-110406-323906-785222
2026-09-06T
11:04:20+0000
1.638 km
极远距离
3.637697E-6 低风险 0.46
CDM_260915-034806-785206-981921
2026-09-15T
03:48:34+0000
2.923 km
极远距离
7.35538E-7 极低风险 0.32
Miss Distance Evolution Trend with All Objects
Collision Probability Evolution Trend with All Objects